DW2919 Weather Reports


time (UTC)temp
C
wind
direction
speed
KPH
gust
KPH
rain 1hr
cm
rain 24hr
cm
rain mn
cm
humidity
%
barometer
mb
20260505061616 10 13 16.1 29.0 0.00 0.00 0.00 87 1010.0
20260505060011 10 30 11.3 24.1 0.00 0.00 0.00 88 1010.0
20260505054627 10 24 11.3 22.5 0.00 0.00 0.00 88 1010.1
20260505053113 10 24 14.5 20.9 0.00 0.00 0.00 88 1010.2
20260505051605 10 9 12.9 24.1 0.00 0.00 0.00 88 1010.2
20260505041620 10 12 14.5 20.9 0.00 0.00 0.00 88 1010.5
20260505040105 10 360 9.7 16.1 0.00 0.00 0.00 88 1010.5
20260505034528 10 17 11.3 16.1 0.00 0.00 0.00 88 1010.6
20260505033030 10 34 12.9 19.3 0.00 0.00 0.00 88 1010.6
20260505031505 10 42 12.9 20.9 0.00 0.00 0.00 88 1010.6
20260505030120 10 17 11.3 19.3 0.00 0.00 0.00 89 1010.6
20260505024611 10 27 11.3 19.3 0.00 0.00 0.00 89 1010.7
20260505023056 10 35 9.7 16.1 0.00 0.00 0.00 89 1010.7
20260505021602 10 42 16.1 22.5 0.00 0.00 0.00 89 1010.7
20260505020010 10 28 11.3 20.9 0.00 0.00 0.00 90 1010.6
20260505014626 11 21 12.9 22.5 0.00 0.00 0.00 90 1010.6
20260505013009 11 19 12.9 29.0 0.00 0.00 0.00 91 1010.6
20260505011624 11 355 12.9 22.5 0.00 0.00 0.00 91 1010.5
20260505010006 11 5 12.9 20.9 0.00 0.00 0.00 91 1010.8
20260505004624 11 34 12.9 19.3 0.00 0.00 0.00 91 1011.0
20260505003107 11 360 11.3 20.9 0.00 0.00 0.00 91 1011.2
20260505001511 11 360 12.9 22.5 0.00 0.00 0.00 91 1011.3
20260505000108 11 5 11.3 19.3 0.00 0.00 0.00 91 1011.5
20260504234555 10 19 14.5 20.9 0.00 0.00 0.00 91 1011.5
20260504233055 10 15 11.3 20.9 0.00 0.00 0.00 91 1011.7
20260504231505 10 14 12.9 24.1 0.00 0.00 0.00 91 1011.7
20260504230121 11 9 14.5 24.1 0.00 0.00 0.00 91 1011.7
20260504224610 10 11 11.3 24.1 0.00 0.00 0.00 91 1011.7
20260504223015 10 19 16.1 29.0 0.00 0.00 0.00 91 1011.8
20260504221609 10 5 12.9 29.0 0.00 0.00 0.00 91 1011.9
20260504220010 11 5 14.5 25.7 0.00 0.00 0.00 91 1011.9
20260504214627 11 355 17.7 30.6 0.00 0.00 0.00 91 1012.0
20260504213103 11 24 19.3 35.4 0.00 0.00 0.00 90 1012.1
20260504211515 11 5 19.3 29.0 0.00 0.00 0.00 91 1012.2
20260504210007 11 5 14.5 29.0 0.00 0.00 0.00 91 1012.1
20260504204620 11 22 12.9 29.0 0.00 0.00 0.00 91 1012.2
20260504203107 11 355 16.1 30.6 0.00 0.00 0.00 91 1012.1
20260504201510 11 20 14.5 24.1 0.00 0.00 0.00 91 1012.1
20260504200125 11 17 12.9 22.5 0.00 0.00 0.00 90 1012.2
20260504194618 11 355 12.9 20.9 0.00 0.00 0.00 90 1012.0
20260504193103 11 13 12.9 19.3 0.00 0.00 0.00 90 1011.8
20260504191510 11 11 8.0 19.3 0.00 0.00 0.00 90 1011.8
20260504190121 11 5 17.7 30.6 0.00 0.00 0.00 89 1011.7
20260504184611 11 26 16.1 25.7 0.00 0.00 0.00 89 1011.7
20260504183014 11 20 16.1 33.8 0.00 0.00 0.00 89 1011.5
20260504181631 12 13 17.7 32.2 0.00 0.00 0.00 89 1011.2
20260504180054 12 11 14.5 30.6 0.00 0.00 0.00 89 1011.2
20260504174546 12 5 16.1 25.7 0.00 0.00 0.00 89 1011.3
20260504173008 12 5 16.1 29.0 0.00 0.00 0.00 88 1011.3
20260504171624 13 355 16.1 29.0 0.00 0.00 0.00 88 1011.3
20260504170109 13 19 16.1 25.7 0.00 0.00 0.00 86 1011.3
20260504160107 17 5 16.1 25.7 0.00 0.05 0.00 79 1010.9
20260504140114 20 348 6.4 11.3 0.00 0.15 0.00 71 1011.0
20260504130107 19 333 4.8 11.3 0.00 0.43 0.00 75 1011.7
20260504120125 18 267 3.2 11.3 0.00 0.43 0.00 79 1011.8
20260504110119 17 341 3.2 8.0 0.00 0.43 0.00 80 1012.1
20260504100113 16 351 4.8 8.0 0.00 0.43 0.00 84 1012.2
20260504081552 14 313 4.8 9.7 0.00 0.46 0.00 90 1012.0